Theta_e
313 311 311 311 311 311 311 311 310 310 310 310 310 310 309 310 312 310 311 313 313 312 311 309 310 309 308 308 309 309 316 314 313 312 312 314 313 312 312 312 313 316 315 312 311 316 312 311 310 311 313 313 312 311 310 312 314 312 312 312 312 308 308 310 311 310 307 307 307 308 309 311 316 312 309 311 311 312 313 313 314 313 313 313 314
310 309 310 310 310 310 310 310 314 309 311 309 309 309 309 309 309 309 311 312 312 312 314 312 308 308 308 308 308 309 310 310 310 312 313 313 313 312 313 310 310 313 318 314 313 310 310 310 310 310 311 313 313 313 315 316 310 310 310 309 309 310 307 309 311 307 305 304 304 304 306 307 311 310 308 309 310 310 312 312 314 311 312 313 314
307 308 308 309 309 310 309 309 308 309 309 309 310 309 309 310 309 311 310 311 313 315 311 311 312 312 308 308 307 309 310 314 311 315 314 310 310 311 313 310 310 311 313 317 311 311 310 310 310 310 310 315 309 309 308 309 309 309 309 309 308 308 310 311 311 310 305 305 304 305 301 300 305 305 307 308 309 309 311 311 313 312 311 312 314
306 306 307 308 308 308 308 308 308 310 312 310 310 310 312 314 310 309 310 310 311 317 317 311 313 312 312 311 310 309 311 314 310 310 311 313 311 311 313 310 311 311 311 316 311 309 309 310 309 309 310 314 308 308 308 308 308 309 309 311 308 306 304 306 312 310 309 306 301 302 300 300 298 301 303 307 307 307 308 309 310 311 311 310 314
307 306 306 307 307 308 308 309 308 309 309 310 310 310 312 310 311 310 310 310 309 314 310 311 312 309 309 310 311 309 310 307 308 308 308 314 313 310 311 312 311 312 311 311 318 309 309 309 309 310 310 311 311 308 308 308 307 308 309 309 308 306 306 305 308 311 310 312 306 303 300 298 298 300 303 304 304 306 306 308 311 311 310 311 311
308 307 307 307 307 307 308 310 308 308 309 310 309 310 311 311 312 310 309 309 310 312 311 310 310 308 307 307 306 305 305 305 307 308 308 307 308 309 310 310 311 312 310 310 312 318 309 309 309 309 310 311 314 310 308 308 308 308 311 308 309 310 306 306 305 310 311 313 309 306 305 300 301 303 301 299 306 307 307 307 309 309 309 310 310
308 307 307 306 306 307 307 308 308 308 309 309 310 310 310 310 310 311 309 311 312 310 310 313 307 307 306 306 305 306 305 306 305 305 305 307 307 308 308 309 309 310 311 309 310 313 312 309 309 309 309 309 318 310 310 309 309 308 315 310 309 313 308 307 306 305 307 308 309 310 311 312 307 305 301 302 299 304 304 306 306 307 308 308 308
309 307 307 307 307 308 308 309 308 310 310 309 309 310 310 311 310 310 311 317 311 312 310 312 308 307 307 307 310 304 306 307 308 307 307 313 306 308 307 308 308 309 309 308 309 311 317 313 309 309 309 309 320 313 310 310 310 310 313 310 310 311 308 308 307 306 304 306 310 308 308 310 308 307 305 303 302 299 301 306 306 307 308 308 309
310 307 307 307 307 308 309 308 309 309 309 310 310 310 310 309 312 310 311 310 310 313 314 312 312 307 309 308 308 310 307 309 311 311 308 307 306 307 307 307 308 308 307 308 308 309 318 316 313 309 310 309 318 314 311 310 309 309 309 309 308 309 309 311 308 307 307 306 305 306 306 306 305 306 306 305 302 299 299 300 300 304 305 306 309
310 309 308 307 307 308 309 309 309 309 310 312 310 309 309 309 310 313 309 308 310 310 312 311 311 310 305 306 306 306 307 306 305 306 305 305 306 305 306 307 307 308 308 310 309 308 309 311 315 310 310 311 320 312 309 309 309 309 309 309 310 308 308 308 309 308 307 307 305 305 303 303 304 304 303 302 302 302 297 297 299 298 296 300 305
310 309 308 307 308 308 308 308 309 309 309 309 309 308 308 308 308 310 310 309 310 310 311 311 308 307 305 305 306 306 306 305 306 307 305 305 305 305 305 306 306 307 307 309 308 308 309 315 312 310 313 315 313 309 309 308 309 309 310 310 309 307 307 307 306 306 305 304 303 303 303 303 301 299 299 301 300 299 298 297 298 299 298 297 301
310 308 307 306 307 307 307 307 308 309 308 308 308 308 309 308 308 309 309 310 310 312 310 310 309 307 307 306 305 306 306 307 306 306 305 306 305 305 305 306 306 306 307 307 309 309 311 310 311 309 311 310 310 310 310 309 310 309 309 308 306 306 306 305 303 302 301 300 300 302 301 302 301 300 300 301 300 299 298 297 297 298 298 299 300
309 308 307 306 307 307 307 308 308 308 308 308 309 308 308 308 308 309 309 309 309 310 310 310 309 308 307 306 306 308 306 307 305 306 304 306 306 306 306 306 306 307 307 306 308 307 311 310 310 309 309 310 311 309 309 309 308 307 306 303 303 303 303 302 300 300 300 298 298 300 300 298 298 300 300 300 300 300 299 296 297 298 295 297 299
309 308 307 307 307 307 308 308 309 308 308 308 308 310 308 309 309 309 309 309 310 310 310 310 309 309 308 308 306 312 307 306 305 306 306 306 306 306 306 306 306 307 307 307 307 310 310 310 310 309 309 308 308 307 306 306 305 304 304 303 302 301 301 300 299 300 299 299 298 296 297 296 298 299 299 299 298 297 296 295 293 294 294 293 296
308 308 307 307 308 308 308 309 309 308 308 308 307 308 308 308 309 310 310 310 309 310 310 310 310 309 309 309 308 309 307 308 307 308 306 306 306 306 307 307 307 307 307 308 310 309 310 309 308 306 306 306 305 304 304 303 303 302 302 302 303 301 299 300 298 298 296 296 296 296 297 296 297 297 298 298 298 297 295 294 292 289 289 291 291
308 307 307 308 308 308 309 310 309 308 308 307 307 308 308 309 309 309 310 310 310 313 310 310 310 310 309 309 309 311 314 313 311 311 311 308 307 307 308 307 307 308 308 310 309 309 308 306 306 305 305 304 304 303 302 301 301 300 300 299 299 300 298 296 297 296 295 296 295 296 295 294 295 296 297 297 296 296 296 295 293 291 287 286 289
308 307 307 307 308 308 309 310 309 308 307 307 307 308 309 309 310 310 310 310 310 312 310 310 310 309 310 309 309 309 309 309 310 308 308 308 309 308 308 308 309 309 309 310 307 307 307 305 304 304 303 303 302 302 302 301 300 298 298 297 297 297 297 295 295 295 294 295 294 294 293 293 294 295 296 295 295 295 295 295 294 291 290 287 286
309 308 308 308 309 309 309 310 309 308 308 307 308 309 309 309 310 310 311 310 311 310 311 311 310 310 309 310 310 309 309 309 309 309 309 309 308 308 309 308 308 309 310 308 306 304 304 304 302 302 302 302 301 301 300 299 298 297 296 296 296 296 294 294 294 293 293 293 293 292 292 292 293 293 293 294 294 295 294 294 293 293 293 289 288
308 307 307 307 308 309 309 310 310 309 310 308 308 309 309 309 310 310 311 311 312 312 311 313 311 311 311 311 310 310 310 310 310 311 310 308 308 309 308 308 308 308 307 304 303 302 301 301 300 300 300 299 299 299 299 298 297 295 296 294 294 294 292 292 292 292 292 292 291 290 291 291 292 293 293 293 294 294 293 293 293 293 293 292 290
308 308 308 308 308 309 309 310 309 309 308 309 309 308 309 310 311 311 311 311 311 311 313 312 312 311 312 312 312 311 312 311 311 310 309 308 309 309 308 307 307 306 303 302 300 299 299 298 298 298 297 297 297 298 297 296 295 294 294 293 292 292 291 290 290 291 290 290 290 289 290 291 292 292 292 293 293 293 293 293 292 292 292 292 292
309 308 308 308 308 309 310 310 310 310 309 310 308 308 309 309 309 311 311 311 310 311 311 312 312 311 312 311 311 311 311 311 311 311 309 307 309 311 308 307 305 302 301 299 298 298 297 297 296 297 295 295 295 295 296 295 294 293 292 292 291 290 289 290 290 289 289 290 290 289 290 291 292 292 292 293 293 292 292 293 293 292 291 292 291
309 309 309 308 309 309 310 310 310 308 308 308 309 308 309 309 310 310 310 310 311 311 311 311 312 312 311 311 311 312 311 311 311 308 309 308 308 308 307 304 301 300 299 297 297 297 296 296 295 295 294 294 294 294 294 294 292 291 291 291 290 289 289 289 289 288 289 289 289 289 290 291 292 291 291 291 291 291 291 291 291 291 290 291 292
309 309 309 309 309 309 310 310 310 310 309 308 308 309 309 309 310 310 310 311 311 312 312 312 312 311 312 312 313 312 312 311 308 307 307 307 307 307 305 301 300 299 298 297 296 295 295 294 294 293 293 293 293 293 292 292 291 290 289 289 289 289 288 288 288 288 288 289 289 289 289 290 291 290 290 290 291 290 291 290 290 290 290 290 290
309 308 309 309 309 309 308 309 309 309 309 308 309 309 309 310 310 310 310 311 311 312 312 312 311 312 314 314 314 314 311 307 307 307 307 307 307 305 303 300 299 298 296 296 295 294 294 293 293 292 292 292 292 292 291 290 290 289 289 289 289 289 288 288 288 288 289 288 288 288 289 290 289 289 289 290 290 290 289 289 289 289 289 289 289
308 308 308 308 307 308 308 309 309 310 309 309 309 309 309 310 310 311 311 312 312 312 312 311 311 312 313 313 312 309 307 307 307 307 306 307 306 304 301 299 298 297 296 295 295 294 293 293 292 292 291 292 292 291 289 289 290 290 289 289 288 288 288 288 288 288 290 288 288 288 288 290 289 288 289 289 289 288 288 289 288 289 289 289 289
307 307 306 307 308 309 308 309 309 310 310 310 309 309 309 310 311 311 311 311 311 312 312 311 312 312 313 313 310 307 307 306 306 306 306 305 304 301 299 298 296 295 295 294 294 294 293 292 292 292 292 292 292 291 289 288 289 289 289 289 289 288 288 288 288 288 288 288 288 288 289 290 289 288 288 288 288 288 288 288 288 288 288 288 288
307 307 308 307 306 307 308 309 309 310 310 310 310 309 309 310 310 311 311 312 312 313 313 313 313 312 312 311 308 307 307 307 306 305 305 303 301 299 298 296 296 294 294 293 293 293 293 292 292 292 292 292 292 292 290 288 288 288 288 288 288 288 288 288 288 288 288 288 288 288 288 289 290 289 289 288 288 288 288 288 288 288 288 288 288
306 306 306 307 307 308 308 308 309 309 310 309 309 309 309 309 310 311 311 311 313 313 313 313 312 310 309 308 307 307 306 305 305 304 303 301 299 297 296 295 294 293 292 292 291 291 291 291 291 292 292 292 291 292 292 290 288 288 288 288 288 288 287 287 288 288 288 288 288 288 288 289 290 290 290 289 288 288 288 287 288 288 288 287 287
305 306 306 307 307 307 308 308 309 309 309 309 309 308 308 309 310 311 311 311 313 312 311 310 309 308 307 307 306 306 305 304 303 302 300 298 297 296 295 295 294 293 293 291 291 291 290 290 290 291 291 291 291 291 292 292 290 288 288 288 288 287 287 287 287 287 287 287 287 288 288 290 292 292 293 292 291 291 288 287 287 288 288 287 286
306 306 306 307 308 308 308 308 308 308 308 308 308 308 308 308 309 310 310 311 313 311 310 308 307 306 306 306 305 304 302 302 302 300 298 297 295 295 294 293 293 292 292 292 291 291 290 289 289 289 290 291 291 292 292 292 292 291 288 287 288 288 287 287 286 286 286 287 287 287 288 292 291 291 291 290 289 290 291 290 288 288 287 286 286
307 306 306 307 307 307 307 307 308 308 308 308 308 308 308 308 308 309 310 312 312 310 308 307 306 305 304 303 302 301 301 300 300 299 297 296 295 294 293 293 292 292 291 291 290 289 289 289 289 289 289 290 290 291 291 290 289 291 290 288 287 287 287 286 286 286 285 286 286 287 288 290 289 289 289 289 289 289 289 290 290 291 290 287 285
307 307 307 307 307 307 307 307 308 308 308 308 308 308 308 308 308 310 311 311 309 308 306 305 305 304 302 301 301 300 299 299 299 298 297 295 295 294 293 292 291 291 291 290 290 289 289 289 289 289 289 289 290 291 290 290 289 289 290 288 287 286 287 286 286 286 285 285 285 286 287 288 287 287 287 287 288 289 289 289 289 289 288 288 288
308 308 308 308 308 308 308 308 308 308 308 308 308 308 308 309 309 310 309 308 307 306 305 304 303 302 301 300 299 298 298 298 298 298 297 295 294 293 292 291 291 291 290 289 288 288 288 288 288 288 288 289 289 290 290 290 289 289 288 288 286 286 287 286 286 286 286 285 285 286 287 287 286 289 288 287 286 287 289 289 289 288 287 287 286
309 309 309 309 309 308 308 308 308 308 308 308 309 309 309 310 309 308 307 307 306 304 304 303 302 300 299 298 298 297 296 297 297 297 296 295 293 292 292 292 291 290 289 289 289 288 288 288 288 287 288 289 289 290 289 290 289 289 288 287 286 286 286 286 286 286 286 285 285 285 286 285 286 285 286 286 286 286 286 285 285 285 284 285 286
308 307 308 308 308 307 306 306 308 308 308 309 309 309 308 307 307 307 307 306 304 303 302 301 300 299 298 297 296 296 295 296 296 296 295 294 293 293 292 291 290 290 289 289 288 288 289 289 288 288 288 288 289 289 289 289 290 289 288 287 286 286 286 286 286 286 286 285 285 286 286 285 285 285 286 287 286 286 285 284 283 283 283 284 284
308 308 308 307 307 308 308 308 309 309 308 309 308 307 306 306 307 307 306 304 303 301 300 300 299 298 297 296 295 295 295 294 294 294 294 293 293 292 291 292 291 290 291 290 290 289 288 287 287 287 287 287 289 289 289 289 289 289 288 286 286 285 285 285 285 285 285 285 285 286 286 285 285 285 287 287 287 286 284 282 282 282 282 283 284
307 306 307 306 307 308 308 309 308 308 308 307 307 307 307 306 305 305 304 302 301 300 299 300 298 297 297 295 295 294 293 293 293 293 292 292 291 291 292 293 290 290 289 289 289 289 289 288 288 287 286 286 287 289 289 289 289 290 288 285 286 285 285 285 285 285 285 285 285 286 286 285 285 285 287 285 285 287 283 282 281 281 281 282 282
304 302 303 304 305 305 307 307 306 306 306 306 307 307 306 305 304 303 302 301 300 299 299 299 298 297 296 294 294 294 293 293 292 291 291 290 291 291 291 292 290 289 289 289 290 289 290 290 288 287 287 285 285 289 289 289 289 289 288 285 285 285 285 285 284 285 285 284 285 288 288 285 284 284 285 285 285 286 283 282 281 280 280 280 281
303 304 303 303 303 305 305 305 305 304 305 307 307 307 305 304 303 302 301 300 299 299 299 298 298 296 295 294 294 293 292 292 291 290 290 290 290 291 292 290 289 289 289 290 290 287 287 287 288 289 290 286 285 288 289 289 288 288 288 286 285 284 284 284 283 284 284 283 283 285 287 286 285 285 285 284 284 285 283 282 281 280 279 279 280
303 303 303 304 306 305 303 303 304 304 305 306 306 306 305 303 302 301 300 299 299 300 299 299 298 296 294 294 294 294 292 291 290 290 290 290 291 289 288 288 289 289 289 288 288 286 285 285 286 284 285 286 286 286 289 288 288 288 288 287 285 284 283 283 283 284 282 282 283 283 284 285 284 284 284 284 283 284 282 282 281 280 279 278 281
302 303 306 304 304 304 304 304 304 304 305 305 306 305 303 302 301 300 299 300 300 300 299 298 297 295 294 293 292 292 291 291 290 290 291 291 289 288 288 287 287 287 286 286 285 286 285 284 285 285 285 285 288 287 288 288 288 287 287 287 285 285 284 283 282 283 282 281 281 282 283 285 284 283 283 283 283 283 283 282 281 280 280 281 283
303 305 304 302 302 302 302 302 303 304 305 304 304 303 302 301 300 299 299 300 300 299 299 297 295 293 293 292 291 291 291 291 291 291 288 287 288 288 287 287 286 285 285 285 286 286 284 284 283 284 286 284 287 289 288 288 287 287 287 287 286 285 285 284 282 282 282 281 282 282 282 284 283 283 283 283 282 282 282 282 281 282 282 281 281
302 301 302 303 302 302 302 302 302 303 304 304 303 302 301 301 300 299 300 300 299 299 298 296 294 292 292 291 291 291 291 291 290 289 288 287 287 287 286 286 285 284 284 283 283 283 283 283 283 283 283 284 284 286 288 288 287 287 287 286 286 285 285 285 282 281 281 281 282 283 283 285 283 282 282 282 281 281 282 280 281 281 281 281 281
302 303 302 303 303 302 302 301 302 302 303 303 303 302 301 300 299 299 299 299 299 298 297 295 294 291 290 291 291 291 291 290 290 288 288 286 285 285 286 286 285 285 283 283 283 283 282 282 282 283 284 284 284 283 286 287 288 287 286 286 286 285 285 284 283 282 282 282 282 282 282 282 282 282 281 281 280 281 280 280 280 281 280 280 280
302 302 302 303 303 302 302 301 300 301 301 302 302 302 301 299 298 299 299 298 298 297 296 293 291 290 290 290 290 289 289 289 288 288 287 286 286 286 285 284 285 284 283 283 283 284 283 284 284 283 283 283 283 283 283 286 288 287 286 286 286 285 284 284 283 283 283 282 282 283 282 282 281 281 281 280 280 280 280 279 279 280 281 278 278
301 301 302 302 302 302 302 301 299 299 300 301 301 302 301 299 298 299 298 298 298 297 295 292 291 290 289 289 288 288 288 288 288 287 287 287 286 287 286 284 284 284 284 283 284 284 284 283 283 282 283 283 284 282 283 283 287 287 285 285 285 285 284 284 284 282 282 282 282 282 282 281 281 281 280 279 278 278 279 279 279 279 277 277 278
302 303 302 302 302 301 301 301 300 298 299 299 300 301 301 299 299 298 298 298 298 297 295 293 291 290 289 288 288 287 287 287 287 287 288 288 287 286 286 287 285 284 284 285 285 285 285 285 284 283 283 284 283 283 283 284 284 285 284 284 284 284 284 283 283 282 282 281 281 281 280 280 280 280 279 279 278 278 278 277 276 276 277 277 278
303 302 302 302 302 302 301 301 301 299 299 299 299 299 299 299 298 298 298 298 298 296 294 292 290 289 289 288 288 291 289 286 287 287 286 286 286 286 286 286 284 284 284 285 285 285 285 285 283 283 283 283 283 283 284 285 286 285 284 283 284 284 282 282 282 281 281 281 280 281 280 280 279 278 278 278 277 277 276 276 275 276 276 277 278
302 302 302 303 302 302 302 302 301 299 299 298 298 298 298 298 297 297 298 297 297 295 294 291 290 289 288 290 290 290 287 286 286 286 286 286 286 286 286 285 285 284 285 285 284 284 285 283 283 283 284 283 284 284 285 288 287 286 285 284 284 283 283 282 282 282 281 280 280 279 278 278 277 277 276 276 276 275 275 275 275 275 275 275 276
303 304 302 303 303 303 302 302 300 298 299 298 297 298 298 297 297 297 297 297 296 294 292 290 290 289 289 290 289 287 287 287 286 286 286 287 289 288 286 285 285 289 288 287 286 285 285 283 283 283 284 284 284 285 288 288 286 285 285 285 284 283 283 282 282 281 281 279 278 277 277 276 276 275 275 275 275 274 274 274 274 275 275 274 275
303 302 301 302 302 303 302 301 299 299 299 299 298 298 297 296 297 297 297 297 295 294 292 290 290 289 290 290 288 286 286 286 286 286 286 286 285 287 288 288 289 290 288 288 288 288 287 285 287 283 285 286 286 288 288 287 285 285 284 284 283 283 282 282 282 281 278 278 277 276 276 276 276 275 275 275 275 274 274 273 273 273 274 274 274
Wind_Speed
1 3 2 3 4 3 3 4 4 4 3 3 4 3 4 3 4 4 2 1 3 4 3 3 3 3 3 3 2 2 2 3 4 3 4 3 4 4 4 4 3 3 3 4 4 4 4 4 5 5 4 4 3 3 3 4 3 3 4 3 4 6 6 8 8 5 6 6 5 6 6 4 3 3 5 6 6 5 4 5 5 5 6 7 6
3 4 2 3 3 3 3 3 4 6 1 3 4 3 2 3 4 2 2 3 3 3 3 2 1 3 4 3 3 3 3 5 4 4 2 3 3 3 3 3 3 4 2 3 3 4 5 4 4 4 4 3 2 2 2 4 6 6 5 5 2 3 5 7 8 6 6 5 5 6 7 6 2 3 3 6 5 5 5 5 5 5 5 6 5
3 3 2 3 3 3 2 3 3 4 3 3 1 3 4 4 3 3 3 3 2 1 3 3 1 1 2 2 4 3 1 0 1 1 1 3 4 4 3 4 3 3 4 2 3 3 3 3 3 3 4 3 4 5 5 6 5 6 6 4 6 3 2 3 7 6 5 1 1 2 5 8 7 7 6 7 4 4 4 4 4 4 6 5 4
5 5 5 3 2 2 2 4 3 2 3 2 1 3 2 3 3 3 2 1 2 1 2 2 3 2 3 4 3 3 3 1 1 3 4 5 5 4 4 3 2 3 3 2 2 3 3 3 3 4 3 3 3 4 5 6 6 6 6 5 3 6 6 5 3 5 5 4 6 3 2 1 6 6 7 9 3 5 5 4 3 4 5 5 4
6 4 3 3 3 3 4 4 2 3 3 2 2 1 2 3 2 2 1 1 1 2 2 3 4 5 4 4 3 3 3 5 5 5 4 2 2 4 3 3 2 3 3 3 2 3 2 3 4 3 4 4 3 4 5 5 5 4 3 4 5 3 7 5 4 5 6 4 4 3 4 4 1 6 6 6 3 6 4 4 4 5 5 4 5
8 8 7 6 5 3 1 2 3 3 3 3 2 2 1 1 1 1 1 2 2 2 1 3 3 5 4 5 4 4 4 3 3 1 2 2 1 3 3 2 4 2 3 3 4 3 4 4 4 4 5 5 3 4 3 4 5 5 4 3 5 3 2 5 6 5 3 4 5 3 4 3 6 6 4 9 4 6 7 4 6 5 5 5 4
3 2 3 4 4 3 4 4 4 4 4 2 2 2 1 1 1 0 0 1 2 2 2 3 4 4 4 4 4 4 4 0 2 3 3 2 2 2 3 4 4 4 4 4 4 3 3 4 3 3 3 3 2 3 5 5 5 4 3 4 4 3 5 6 6 5 6 2 5 3 2 1 2 4 7 6 11 5 5 4 6 4 5 4 5
7 7 6 5 6 7 7 6 4 6 4 1 3 2 2 3 2 1 0 0 2 1 3 1 6 4 5 4 3 3 3 2 1 2 1 1 3 3 4 3 4 3 4 4 4 4 2 3 4 4 4 4 2 4 4 4 5 4 3 2 3 3 4 5 6 5 6 6 6 6 6 4 1 3 4 4 5 10 15 6 5 4 6 5 5
9 8 9 8 8 7 6 6 6 4 3 4 4 4 3 2 1 1 1 0 1 2 2 2 2 4 5 5 4 1 1 1 2 1 2 2 4 4 4 5 5 4 3 3 3 3 2 3 3 4 4 5 3 4 4 4 4 5 7 7 7 6 5 4 4 6 6 5 6 5 5 5 6 4 2 3 4 7 8 10 15 9 5 6 5
8 9 8 7 7 7 6 5 4 5 5 3 3 2 3 1 2 1 2 1 1 1 2 2 2 3 5 4 5 1 1 1 1 2 3 3 3 3 4 5 5 6 6 4 4 4 4 4 3 4 4 5 4 5 6 7 7 7 6 6 5 7 5 5 6 5 5 5 5 4 6 5 4 4 4 6 4 4 7 10 10 14 16 12 6
8 8 6 6 4 4 4 5 6 4 4 2 3 3 2 2 2 3 3 1 1 1 1 1 2 2 4 4 4 3 1 1 1 2 4 4 4 4 4 5 4 5 5 5 4 4 4 3 4 6 5 5 6 7 7 6 6 6 6 7 8 8 7 7 7 7 5 6 7 6 5 5 4 5 7 6 5 5 7 7 9 8 10 14 11
9 7 6 5 4 3 3 5 5 6 4 4 4 4 3 3 2 4 3 2 1 1 1 1 1 1 1 3 3 3 3 1 0 1 2 3 2 4 5 5 5 5 4 5 6 6 7 7 6 6 7 7 7 6 6 6 6 7 8 8 8 8 8 7 8 8 9 7 7 6 5 5 5 5 6 6 6 7 7 9 9 10 9 6 10
8 8 7 6 7 7 6 6 5 5 7 7 6 5 4 3 3 4 5 3 1 0 0 0 0 1 2 2 2 2 2 2 1 2 3 3 4 4 4 5 5 6 6 6 7 9 7 8 8 7 7 7 7 8 7 9 8 9 8 9 9 9 7 8 7 7 7 7 6 5 4 5 5 4 5 5 5 5 6 8 8 7 11 11 8
9 9 8 8 8 7 7 7 7 7 7 7 6 5 4 4 4 4 7 3 1 0 1 1 2 2 2 2 2 2 3 2 3 3 2 3 3 4 4 4 5 5 5 6 6 7 6 6 6 7 7 8 8 9 9 9 9 8 8 9 9 7 7 8 7 7 7 7 6 7 6 6 5 6 6 5 6 7 8 9 11 8 7 12 8
8 8 9 9 9 8 8 8 7 7 7 7 5 5 4 4 4 5 5 4 3 3 2 3 3 3 2 2 2 2 3 2 3 3 3 3 3 4 6 4 3 5 6 4 6 6 6 8 8 9 9 9 9 9 8 9 8 8 8 8 7 7 7 7 8 8 8 10 9 7 7 7 8 8 7 7 7 7 8 9 9 13 11 4 9
8 8 8 8 8 8 7 7 7 7 7 6 6 5 5 6 5 5 6 4 3 3 3 4 4 2 2 3 3 2 2 1 3 2 3 3 4 4 6 3 5 4 4 4 6 7 8 8 8 9 9 9 9 9 9 8 8 8 7 7 8 6 7 10 7 8 9 9 9 8 7 8 8 8 8 7 8 7 7 6 7 8 11 15 8
9 9 9 8 6 7 9 8 7 6 6 8 8 7 7 7 5 6 6 4 3 4 4 3 3 3 4 4 3 3 4 4 5 4 4 3 3 4 3 4 2 4 5 5 8 8 8 8 8 8 9 9 9 9 8 7 7 8 8 8 8 7 8 9 8 8 8 8 7 9 8 7 8 8 8 8 8 7 7 6 6 7 9 9 12
12 9 8 9 10 10 9 8 8 9 9 8 8 6 6 6 6 6 5 5 6 4 4 4 4 5 5 4 4 4 5 5 4 5 3 3 4 4 4 4 5 5 7 6 7 8 8 9 8 9 8 9 8 8 8 8 7 8 7 7 7 7 7 7 9 8 9 8 9 8 9 8 8 8 8 8 8 7 7 8 7 8 7 9 10
7 8 8 8 8 9 10 9 8 8 7 8 7 6 4 4 5 5 7 6 5 3 3 3 4 5 5 5 4 4 4 5 4 3 2 3 5 4 4 5 7 6 7 7 8 8 7 8 8 8 8 8 8 8 8 7 8 8 8 8 8 8 8 8 9 9 8 9 9 9 9 8 8 8 8 8 8 8 8 8 8 8 7 8 10
9 9 9 9 10 11 11 10 10 9 8 7 5 4 6 6 5 5 4 3 3 4 3 5 5 5 5 4 3 4 4 5 4 3 2 5 2 4 6 8 7 7 8 8 8 8 7 8 8 8 8 8 8 8 7 7 8 8 8 8 8 9 9 9 8 8 7 8 9 9 9 8 8 7 8 8 8 9 9 8 8 8 8 8 9
10 10 9 10 10 9 9 9 8 5 4 4 5 7 7 4 5 5 6 5 5 5 4 5 4 5 5 5 5 3 5 3 4 2 4 2 3 6 7 7 8 8 7 9 9 8 8 8 8 8 8 8 8 8 7 7 8 9 8 8 9 9 9 8 8 9 9 8 8 7 7 8 7 8 7 8 9 9 9 8 8 9 10 10 10
10 10 9 9 8 9 8 7 4 4 5 6 6 4 5 6 6 5 3 5 5 5 5 5 4 4 5 5 4 3 4 4 0 4 3 4 6 8 7 8 10 8 8 8 8 7 8 8 8 8 8 8 8 8 8 8 9 8 8 7 8 8 8 8 7 8 8 6 6 6 8 9 8 9 10 10 9 10 10 10 10 9 9 9 9
11 10 9 9 10 10 10 10 9 8 7 5 5 6 6 6 5 5 5 7 6 6 4 4 4 4 5 5 2 4 3 2 4 3 5 6 8 8 7 9 8 8 8 8 8 8 8 8 9 8 8 8 9 9 8 8 8 9 8 7 7 8 8 8 8 8 8 7 7 8 8 8 8 11 11 10 10 11 11 11 11 10 11 11 11
5 5 6 8 7 5 4 6 7 7 6 7 7 5 5 5 7 5 7 7 6 6 4 3 3 2 2 3 3 1 1 2 4 5 8 8 8 8 8 9 8 8 9 8 9 8 9 9 9 8 8 8 8 8 9 9 9 8 7 7 7 7 6 6 6 7 8 8 8 7 8 8 10 10 11 10 9 11 11 10 11 11 11 12 11
6 8 8 6 5 6 9 8 9 8 7 6 6 6 6 8 7 6 7 5 6 4 4 3 4 5 5 5 1 3 4 5 6 7 9 9 9 9 8 9 8 9 8 8 8 8 9 9 8 8 9 8 8 8 8 7 7 6 6 6 6 5 5 6 6 6 8 7 8 8 8 7 8 9 11 10 10 13 11 11 11 11 11 11 11
8 7 5 8 10 8 6 7 8 8 8 7 7 6 7 7 7 5 6 5 5 3 3 4 5 6 6 3 4 5 6 7 8 8 9 9 9 9 9 8 8 10 9 8 9 8 8 8 8 8 8 8 7 7 7 6 6 5 5 4 5 5 5 5 6 6 6 6 6 8 8 8 9 9 11 12 12 13 12 12 13 12 12 12 12
10 10 9 5 4 8 10 8 9 8 7 7 7 7 7 6 7 6 6 5 4 4 4 5 5 4 3 4 5 6 6 7 7 8 8 9 9 9 9 9 8 9 9 9 8 9 7 7 8 7 8 7 6 5 5 5 5 5 5 5 5 5 5 5 5 6 6 6 7 8 8 9 9 12 13 13 13 13 11 13 13 13 13 13 13
3 3 5 9 10 9 8 9 8 9 8 6 6 6 7 7 8 7 5 4 4 5 5 4 5 4 4 6 6 6 7 8 8 9 10 10 10 9 9 9 9 9 9 8 8 7 7 7 7 7 7 6 5 5 4 4 5 5 5 5 5 6 6 5 6 6 6 7 7 8 8 9 9 11 12 12 12 12 12 12 12 12 13 13 13
6 8 8 8 9 9 10 9 10 8 8 8 6 6 5 5 6 6 4 6 5 4 4 5 5 6 6 7 8 7 7 9 9 10 10 10 10 10 9 8 9 9 8 8 7 6 8 8 7 6 6 5 4 5 5 4 3 5 4 4 5 6 6 7 7 7 7 7 7 7 8 9 12 15 18 15 15 15 12 13 13 13 14 13 13
9 9 10 10 11 10 10 9 8 9 9 8 7 7 7 7 7 5 4 3 5 5 6 6 7 7 7 8 9 8 9 9 10 10 10 10 9 9 9 9 9 9 8 7 6 7 7 7 6 6 5 4 5 5 9 12 9 4 4 4 4 5 5 5 6 7 7 7 8 7 8 14 16 17 17 17 18 19 19 15 14 14 15 14 13
9 8 9 10 9 9 7 7 9 10 10 9 8 7 5 5 5 4 4 5 6 7 6 8 8 8 9 9 9 9 9 10 9 10 10 10 10 8 9 9 8 8 7 7 6 7 6 5 5 5 6 5 6 5 10 8 9 9 5 4 4 5 5 5 5 6 7 8 8 8 7 10 13 14 13 17 18 20 19 19 20 19 17 15 14
9 9 8 8 9 8 9 11 11 10 9 8 7 6 4 5 4 5 5 6 6 7 8 8 9 9 9 10 10 10 10 10 10 10 10 9 9 9 9 9 8 7 7 6 7 6 5 5 4 5 4 5 5 9 7 8 8 9 8 5 4 4 4 5 5 6 6 7 8 8 8 8 9 13 13 12 16 19 19 20 19 18 18 19 18
10 9 10 10 11 11 12 12 9 9 9 9 7 4 6 4 4 4 6 7 8 9 10 10 9 10 10 10 10 10 10 9 9 10 9 9 9 9 9 8 8 7 6 7 6 5 5 4 4 4 4 4 4 9 8 9 9 9 9 6 4 4 5 5 6 6 6 7 8 8 8 9 7 17 13 13 14 15 18 20 19 18 17 17 17
9 9 11 11 9 7 8 9 8 6 5 4 4 5 3 4 6 7 8 8 10 9 10 10 10 10 10 10 10 10 10 9 9 9 9 9 9 8 7 7 7 6 6 6 5 5 4 4 4 3 3 3 4 10 10 11 9 9 9 6 4 4 5 5 6 6 6 7 8 9 9 10 9 11 11 14 15 14 14 13 12 11 11 15 16
10 8 7 7 7 6 5 5 6 6 4 5 4 5 7 7 8 8 8 10 9 11 10 10 10 9 10 10 10 10 10 9 9 9 8 8 9 8 8 6 6 6 6 5 5 5 4 3 2 2 3 4 5 12 10 11 10 9 9 6 4 4 4 5 5 6 7 7 8 8 9 9 11 11 12 18 16 15 13 11 12 13 13 12 11
10 10 9 7 7 8 8 7 4 6 7 7 8 7 9 8 7 10 9 9 10 11 10 10 10 10 10 10 11 10 9 9 9 8 8 8 7 7 8 7 6 6 5 4 4 3 3 2 1 2 3 5 5 11 10 11 11 8 9 5 4 5 5 5 6 6 7 7 8 9 11 11 12 12 18 23 20 16 12 12 13 13 14 13 11
3 3 5 5 5 7 8 6 7 8 9 8 9 9 10 10 10 9 10 10 10 11 10 10 10 10 10 9 10 11 10 9 9 9 8 8 9 8 7 6 7 6 6 5 4 3 2 3 4 4 5 4 4 9 11 12 12 11 7 5 5 5 5 6 6 6 6 8 8 12 12 11 12 12 20 22 22 21 13 13 13 13 12 13 12
3 1 0 2 3 3 4 8 8 7 7 9 10 11 11 11 10 9 10 10 10 10 9 10 10 9 10 9 10 10 11 9 9 9 9 7 7 6 7 6 8 7 6 5 4 3 1 1 3 3 5 5 4 8 12 11 13 13 9 6 5 5 5 7 7 6 7 8 10 19 17 12 13 14 22 22 23 18 14 13 14 16 15 14 14
4 7 7 5 4 5 6 5 8 10 6 8 11 12 12 11 10 9 9 10 9 10 10 10 10 9 9 9 9 10 10 10 9 8 8 9 8 7 6 6 6 5 5 5 4 3 4 4 4 4 7 5 5 6 10 11 12 12 9 5 5 4 6 7 7 7 8 8 9 11 18 16 17 18 22 22 22 19 13 12 14 15 16 16 16
3 3 4 7 7 9 7 8 8 8 7 9 10 10 11 11 9 9 10 10 9 9 9 9 10 9 9 8 8 9 9 10 10 8 7 7 6 7 7 7 6 5 5 5 4 4 5 3 3 4 4 3 4 5 7 11 11 11 12 7 4 6 7 7 7 7 8 8 8 9 12 17 22 21 21 22 21 21 15 11 12 14 15 16 16
7 7 6 7 7 9 11 10 9 9 8 7 9 11 10 9 9 9 9 8 8 9 9 10 9 9 9 9 8 9 10 8 8 9 7 6 6 7 7 7 7 5 6 5 5 4 4 3 3 3 4 5 3 5 5 9 11 11 12 10 4 7 6 6 6 7 6 7 8 9 9 16 21 21 21 21 20 20 19 12 12 13 14 16 17
4 7 7 7 6 7 7 7 6 9 8 8 9 11 10 9 8 8 7 8 9 10 10 10 10 10 9 9 9 8 8 9 8 8 9 7 6 6 6 7 6 6 6 6 4 3 3 3 3 3 3 3 5 7 4 7 10 11 11 12 7 7 8 6 7 6 7 7 7 9 9 16 22 21 20 20 20 19 19 12 15 20 22 22 15
8 5 4 9 8 8 9 9 6 6 7 7 10 11 9 8 9 8 8 9 9 10 10 10 10 10 9 9 9 9 8 7 7 8 9 9 7 7 6 6 7 6 6 6 4 3 3 3 2 3 2 3 3 3 7 6 8 10 10 10 11 9 12 7 6 7 7 7 7 8 10 19 20 20 20 20 18 20 14 15 22 22 22 23 16
5 7 8 7 8 7 7 5 6 6 6 7 11 11 9 9 9 7 8 9 9 9 10 10 9 9 9 8 8 8 8 8 8 8 8 9 8 7 6 6 6 6 6 5 4 3 3 3 2 2 3 3 3 3 4 7 6 9 9 10 10 11 13 9 7 6 7 8 8 9 12 18 18 19 19 18 17 16 14 20 21 22 21 18 12
9 8 6 6 11 10 8 6 4 6 5 6 7 13 11 11 8 9 10 11 10 10 10 9 9 9 9 8 7 7 8 8 8 9 9 8 8 7 7 5 6 5 5 5 4 3 4 3 1 0 2 3 3 3 3 5 7 7 8 10 10 11 13 13 8 7 8 8 11 15 17 17 17 17 18 16 13 14 19 18 20 21 19 11 12
5 5 5 5 7 8 10 10 5 4 5 5 6 11 15 11 10 9 10 11 11 11 10 10 9 8 9 9 9 7 7 7 7 6 7 8 9 8 7 6 5 5 5 5 4 4 4 3 2 1 1 2 3 3 3 3 3 5 6 8 8 10 13 13 11 8 13 14 14 15 17 17 15 15 12 11 11 13 18 18 18 18 11 11 11
10 8 7 7 8 9 9 10 10 6 6 5 6 4 9 12 12 10 10 11 11 11 10 9 10 9 8 8 10 8 7 7 6 5 5 6 6 6 6 6 6 6 5 5 5 4 4 3 3 1 1 2 3 3 3 4 3 4 4 4 4 6 10 9 6 6 8 8 10 11 11 13 12 16 14 13 12 14 12 12 11 11 10 10 10
6 6 6 7 10 11 10 10 10 9 7 6 5 6 8 11 10 10 10 10 10 10 11 10 10 9 8 8 9 10 10 7 7 7 7 6 5 6 7 7 7 7 6 6 6 5 5 5 4 2 1 3 3 3 4 4 3 4 4 4 4 5 5 5 5 6 5 7 7 8 9 7 9 9 9 9 9 10 9 10 11 10 10 10 10
9 8 9 12 10 10 12 11 10 8 8 7 7 7 9 11 11 11 11 11 10 9 9 10 9 9 8 7 8 8 8 8 7 5 5 6 8 8 7 6 5 5 6 8 7 6 5 5 4 3 2 1 2 2 3 2 3 4 4 4 4 5 4 4 7 9 6 6 5 6 7 8 9 10 10 10 10 11 10 10 11 11 11 10 10
7 7 8 7 8 11 11 9 8 8 8 9 8 8 9 9 11 11 11 11 11 10 10 10 9 9 8 8 7 7 7 7 8 7 7 4 2 3 4 6 6 6 5 3 5 5 6 5 4 3 2 1 1 2 3 2 5 4 5 6 6 7 8 7 8 9 7 5 6 6 7 8 9 10 10 11 11 11 11 12 11 12 11 10 11
7 7 6 8 7 5 7 9 9 8 9 9 9 10 10 9 10 11 11 12 12 10 8 8 9 9 10 9 8 8 7 7 7 7 7 7 5 3 1 3 4 5 5 5 5 5 7 6 5 1 2 5 6 5 2 6 4 4 4 4 5 6 8 8 9 6 5 6 6 7 7 7 8 8 9 10 10 10 11 10 11 11 9 11 11
Wind_Direction
55 91 91 120 113 98 93 92 87 70 49 70 71 54 55 77 83 64 17 61 110 103 78 91 87 54 49 49 77 354 49 61 54 34 46 29 36 38 33 16 26 54 46 40 51 57 52 37 38 28 16 46 44 12 313 336 348 334 326 325 355 351 344 349 354 352 10 9 2 5 12 7 22 31 29 12 3 354 350 347 353 357 355 354 349
95 90 97 108 114 108 107 114 121 98 69 79 90 77 72 53 74 79 54 74 76 95 107 87 151 153 138 145 114 69 64 70 60 38 43 45 48 40 35 22 28 31 39 53 45 47 47 36 33 25 20 19 34 338 3 6 2 3 4 348 5 358 347 344 344 349 28 38 0 341 348 354 329 328 18 19 353 347 342 339 343 345 343 338 335
114 133 146 158 138 114 107 115 101 121 141 100 83 101 70 69 64 61 43 57 67 131 119 140 168 182 144 189 143 94 5 108 133 25 12 62 41 23 27 23 30 41 11 37 58 41 53 53 20 5 30 359 26 17 5 7 357 352 359 4 337 6 329 335 1 19 26 63 116 70 10 352 340 351 350 357 352 321 328 324 323 325 326 325 327
162 170 179 184 160 138 129 130 147 137 115 94 70 107 99 91 82 73 52 33 37 44 87 107 122 102 72 89 44 77 97 45 47 38 28 31 24 3 23 10 18 49 21 35 66 55 64 43 357 24 6 20 68 23 4 355 352 353 359 360 37 360 6 341 23 9 37 356 15 39 290 134 334 356 332 310 321 313 309 299 290 307 312 314 325
176 182 203 188 185 194 172 171 171 148 155 161 193 166 143 136 122 114 122 68 22 30 79 123 92 66 62 68 58 46 19 27 31 15 1 356 18 13 341 334 356 32 24 15 23 34 19 32 21 351 353 358 22 20 359 333 317 307 327 3 26 33 355 343 336 22 17 32 50 17 355 17 38 278 317 278 312 320 281 272 274 301 303 305 322
179 184 187 191 193 196 224 200 188 185 201 218 218 225 207 210 77 68 66 43 28 14 48 130 98 120 97 87 72 60 43 13 43 10 338 2 342 291 300 340 4 11 18 20 4 8 4 5 10 8 356 349 352 347 302 331 342 344 345 330 4 37 319 3 341 352 26 33 67 122 146 342 313 309 7 321 275 239 270 243 280 280 277 305 309
239 198 181 187 209 190 205 208 206 194 228 221 247 235 259 287 270 270 181 100 71 41 1 81 78 82 106 124 140 141 127 270 243 249 233 277 317 333 330 354 9 6 349 12 10 345 354 340 350 339 306 305 301 1 349 345 324 302 324 353 353 342 27 1 348 323 341 352 23 31 349 297 230 313 323 302 320 312 196 285 300 262 291 302 300
192 197 199 204 194 188 189 205 203 208 208 201 235 250 234 229 233 243 332 35 79 71 51 59 120 127 105 105 109 126 141 173 254 268 231 313 36 7 334 348 342 348 343 353 357 340 307 315 330 332 331 331 307 343 319 313 325 323 317 286 307 37 18 17 334 3 12 327 348 353 350 339 105 254 227 274 291 311 319 297 204 300 316 284 273
192 192 201 199 199 201 194 196 216 221 231 200 212 213 229 258 292 308 292 341 7 52 78 56 118 129 126 122 91 150 188 249 300 305 13 16 51 350 357 331 338 332 344 326 321 305 306 307 320 327 338 326 313 317 319 313 321 324 342 354 353 348 14 5 16 354 359 348 341 360 338 355 322 315 352 30 319 313 303 316 318 311 266 255 280
200 204 198 199 202 200 199 198 201 217 225 213 251 259 241 264 276 245 273 322 337 45 102 88 105 120 111 119 124 121 17 346 16 353 355 28 44 345 338 341 335 332 328 328 328 319 316 306 321 319 314 302 315 328 325 334 342 348 359 356 2 4 5 18 27 11 21 12 28 342 15 345 354 358 11 340 307 253 290 307 311 323 325 318 306
199 200 202 204 207 199 181 191 210 221 240 231 255 247 239 238 262 257 244 307 10 45 90 121 107 84 121 143 143 152 150 49 25 353 353 10 12 329 335 318 306 302 314 313 308 310 323 327 349 338 338 347 347 350 349 341 346 357 359 17 25 23 15 31 38 37 34 32 26 26 18 14 357 342 334 338 330 317 313 301 304 301 301 304 313
193 189 194 192 185 186 182 212 212 216 222 244 242 248 244 238 250 259 266 271 329 62 88 92 96 85 112 149 155 177 163 157 159 269 306 314 317 321 315 330 325 322 320 329 327 349 357 351 355 356 2 357 1 356 359 1 4 23 39 42 41 42 40 43 43 34 27 26 26 12 11 2 6 358 340 328 336 324 312 303 307 314 296 274 303
187 188 184 185 191 192 199 209 206 206 210 220 230 228 233 237 231 239 254 246 274 40 124 73 152 213 191 197 163 167 174 163 187 233 251 282 297 313 323 317 315 330 327 333 341 9 2 359 3 5 4 7 14 30 32 38 46 50 50 49 44 39 35 38 41 34 27 26 7 354 1 8 6 347 334 337 324 312 312 313 313 316 305 305 309
188 186 185 188 191 196 202 196 198 203 209 217 226 227 226 224 220 221 244 248 228 191 230 210 245 231 212 233 241 188 206 192 202 215 252 230 269 281 278 265 287 282 303 347 354 349 13 11 24 36 37 40 44 47 46 43 45 49 46 46 42 32 29 33 34 27 30 23 10 7 9 5 359 351 346 342 347 346 347 341 326 316 301 304 304
185 185 187 190 192 192 198 197 197 200 206 215 221 228 218 229 219 227 249 257 223 227 207 226 244 238 234 225 218 236 219 242 242 225 241 261 256 270 279 279 281 333 5 338 342 18 33 49 51 49 44 47 48 48 44 45 42 45 43 38 37 30 28 28 27 21 21 16 14 13 4 8 3 355 352 354 354 357 349 345 342 331 319 274 306
185 186 191 193 189 192 199 200 200 199 206 211 221 219 215 224 219 225 229 247 240 224 215 221 232 220 225 232 239 234 257 231 268 259 250 221 255 251 279 321 20 348 350 15 29 54 59 58 55 53 49 49 48 47 45 43 37 43 39 33 33 19 28 29 24 22 24 17 13 8 12 10 0 357 356 357 356 352 346 344 343 341 335 322 323
185 188 189 188 183 199 201 199 197 200 205 211 216 212 212 216 216 229 237 245 239 228 226 222 227 221 238 233 238 242 247 245 247 263 264 265 253 253 301 22 348 18 39 56 65 57 60 58 59 54 51 48 49 44 43 41 40 42 37 31 30 16 27 27 20 23 21 14 14 13 13 2 2 356 358 356 352 346 346 342 345 341 330 316 321
189 188 185 184 187 191 202 206 199 197 205 210 219 215 215 215 213 220 229 234 238 223 226 217 218 226 237 239 232 224 238 248 242 258 274 302 299 9 30 21 25 47 73 71 68 63 57 57 58 57 53 50 47 43 40 37 38 43 37 36 27 21 28 27 24 21 18 14 14 14 12 6 0 356 355 349 349 347 347 347 342 336 331 322 318
174 182 178 181 189 197 201 206 206 205 208 210 213 205 214 220 221 216 226 224 229 221 236 244 220 227 226 231 225 234 238 252 250 247 272 302 14 36 44 52 67 70 73 73 68 64 61 56 57 56 51 48 44 40 35 35 34 39 33 30 23 24 29 28 23 20 16 14 13 13 9 5 359 353 354 353 356 355 352 346 340 338 332 325 318
183 183 187 188 193 197 199 203 206 205 207 215 212 200 215 218 215 226 236 238 232 225 213 226 228 228 239 231 233 224 237 241 258 255 321 42 62 69 75 74 78 74 74 72 69 64 58 58 54 53 48 44 40 34 31 31 35 37 31 30 23 27 31 29 25 23 20 17 15 14 8 3 353 352 356 354 353 352 349 343 340 339 332 326 318
188 186 188 190 195 200 207 210 213 204 203 202 204 213 222 214 222 224 224 232 233 232 212 231 221 229 236 234 234 232 248 256 266 351 54 86 69 85 82 92 80 66 69 70 68 64 60 59 55 50 45 41 36 32 27 30 35 34 34 33 29 30 31 26 24 23 19 16 10 4 360 357 352 351 351 348 351 348 341 336 337 337 332 330 323
189 189 186 190 196 202 208 214 214 194 204 211 214 215 225 223 226 224 226 237 233 232 217 225 219 223 229 242 235 227 244 231 41 68 85 76 83 87 94 83 81 74 73 75 71 68 65 59 57 48 44 39 37 34 28 32 36 37 36 33 29 28 32 27 23 21 11 4 353 354 358 358 355 354 351 350 348 344 342 337 337 333 329 324 322
187 187 188 192 195 196 199 202 206 207 208 210 217 215 220 227 231 223 215 239 224 233 212 207 206 214 233 249 237 223 268 37 78 94 93 89 91 90 92 93 90 87 77 73 71 70 63 60 57 48 41 38 33 34 31 36 38 38 38 34 31 29 28 22 17 12 6 356 358 357 350 348 357 356 352 347 347 346 343 337 332 331 326 322 320
187 188 191 194 195 189 186 207 216 217 213 212 218 218 220 227 230 219 224 234 230 230 208 192 198 167 201 252 271 18 46 89 91 103 95 98 93 91 89 89 89 86 82 75 69 66 63 58 56 48 42 40 34 35 38 37 38 36 36 34 29 28 23 17 12 2 3 359 354 348 345 347 6 354 352 347 347 343 339 333 327 323 318 316 315
174 185 192 184 174 186 201 206 212 218 220 219 217 216 212 229 228 221 232 223 226 218 197 193 158 176 193 211 103 96 103 95 101 103 106 101 99 99 95 93 94 85 81 81 74 65 62 58 54 50 47 41 39 41 41 37 34 31 32 29 24 20 14 11 6 357 359 350 346 340 331 331 2 354 354 349 344 340 335 329 325 322 318 314 310
185 184 169 189 199 199 201 208 215 218 218 218 218 213 220 231 236 223 236 226 220 195 191 167 172 177 204 175 105 107 105 110 114 108 105 104 101 99 97 89 89 91 83 75 73 67 64 62 57 54 51 47 43 48 44 35 28 25 25 25 20 14 8 1 356 351 345 344 335 333 331 326 347 358 351 346 341 336 332 329 327 324 320 314 310
187 187 194 182 184 205 209 209 215 219 218 218 214 216 219 228 242 233 228 224 199 176 179 175 177 180 139 89 105 115 122 118 111 109 102 97 93 90 84 84 83 83 82 77 71 70 64 61 58 55 51 44 40 45 55 37 24 14 17 18 12 8 3 353 354 345 339 336 340 341 332 328 330 352 347 345 342 337 334 329 327 326 322 318 315
170 178 179 194 204 207 209 213 215 221 220 220 218 214 214 215 231 236 229 212 189 180 181 166 141 115 106 108 110 120 111 106 99 95 93 92 93 90 88 88 86 81 78 76 73 72 67 61 54 53 49 45 35 40 50 54 29 18 7 5 359 7 357 352 348 343 344 342 342 337 332 319 329 352 346 344 344 337 334 330 330 326 325 324 321
185 202 200 202 206 208 212 213 218 220 220 220 216 219 216 223 225 233 212 203 179 158 142 129 117 116 119 120 112 104 101 99 99 98 98 99 96 96 95 91 88 88 82 78 74 73 71 64 55 49 42 32 32 28 34 47 78 25 3 357 358 358 354 349 346 346 344 341 339 335 324 330 354 348 347 347 344 341 337 333 331 329 328 326 322
201 204 204 207 211 210 212 212 219 218 221 221 218 219 215 214 222 223 212 184 142 146 137 126 120 122 121 115 110 106 103 102 99 98 99 98 97 97 96 92 89 87 86 81 78 70 68 64 62 50 42 32 36 35 33 28 25 42 13 359 352 353 348 341 344 343 342 344 342 334 329 346 356 349 348 348 345 342 339 333 329 331 331 327 323
210 207 207 211 213 213 212 214 221 220 221 219 220 223 212 213 218 207 190 158 145 141 130 123 120 125 119 114 110 106 103 99 102 103 104 104 102 102 99 97 92 88 86 87 77 72 64 60 59 56 47 42 40 37 32 26 23 23 32 6 354 342 340 343 344 345 343 344 341 340 337 351 351 344 348 348 344 342 338 334 330 330 330 329 324
211 211 208 212 212 209 207 213 219 222 221 220 223 221 197 217 190 186 158 138 127 125 120 118 123 120 117 115 110 108 104 106 109 110 111 109 108 103 101 99 98 95 91 85 75 70 66 60 59 52 47 45 42 35 24 31 27 25 25 15 335 338 342 348 344 344 342 342 339 336 340 354 349 348 348 344 342 343 338 334 331 329 330 329 325
212 210 211 211 211 207 207 213 216 219 216 221 210 195 210 192 159 142 127 126 124 124 120 119 121 118 118 114 111 110 109 110 112 113 111 110 108 106 104 105 101 103 96 83 79 74 64 57 52 56 51 38 38 33 24 28 26 23 17 11 341 338 348 351 343 341 340 342 338 339 341 354 346 348 344 345 344 341 338 334 329 327 326 328 326
219 216 214 216 212 212 212 213 214 215 213 194 177 185 172 141 131 129 129 127 122 118 119 120 119 119 118 114 112 111 111 112 113 112 113 113 110 107 110 108 107 102 94 93 90 82 78 71 69 60 47 25 39 28 24 22 22 21 16 9 342 344 343 343 343 340 341 339 340 340 343 350 349 344 342 350 346 340 339 333 330 329 326 326 326
221 226 230 221 210 205 200 201 199 183 162 137 137 134 124 117 127 125 129 126 121 120 120 123 122 121 116 115 114 113 115 116 115 114 112 110 112 115 112 111 109 108 108 113 116 111 97 79 61 26 59 43 30 27 20 20 17 20 13 9 347 347 343 348 346 347 343 340 337 338 345 352 349 345 350 351 346 344 342 338 337 335 330 326 320
216 215 223 213 204 197 194 198 169 151 157 153 148 140 127 124 123 123 122 120 122 120 121 124 122 122 120 121 121 119 118 118 117 114 113 115 117 120 121 121 111 102 102 104 96 97 102 116 84 24 37 26 16 26 16 19 12 14 18 4 352 347 351 349 353 349 346 345 336 345 355 355 352 345 352 350 348 346 345 343 342 337 332 327 324
252 211 226 207 195 189 188 162 162 157 149 148 141 133 125 125 121 123 124 125 123 124 128 127 123 125 125 127 127 125 123 121 121 119 118 123 124 122 119 118 113 118 119 121 137 134 145 128 79 55 35 18 334 23 20 17 11 12 19 2 353 350 352 357 356 343 340 352 346 356 356 358 351 349 351 349 350 351 349 347 343 338 335 330 329
167 88 99 174 166 145 151 153 148 145 145 140 138 133 130 125 124 128 127 125 126 129 131 129 129 131 129 130 130 128 126 125 126 126 124 120 115 115 124 129 130 135 132 145 150 133 134 80 80 102 65 34 339 22 24 13 16 15 19 6 347 348 354 354 348 349 358 356 352 357 358 358 355 351 350 350 351 353 353 349 347 347 346 342 337
163 164 152 147 138 135 130 122 130 130 141 137 134 132 124 123 130 133 132 131 134 137 139 136 133 130 128 128 127 125 125 127 126 127 128 128 127 127 122 114 120 121 131 137 120 84 67 32 28 14 48 49 10 11 25 15 18 16 18 5 356 351 1 1 354 356 1 353 344 350 354 359 357 351 349 351 351 355 351 351 349 349 349 345 341
126 115 142 131 127 114 115 130 135 138 136 137 133 127 125 128 134 135 135 140 144 140 133 125 124 125 124 124 126 123 126 129 128 123 119 121 119 114 119 120 115 116 115 105 104 99 84 52 15 31 7 356 31 4 27 17 20 19 21 18 350 8 6 359 359 1 354 344 343 344 348 355 356 352 350 351 351 355 353 348 353 356 350 345 337
146 142 133 127 140 143 146 147 143 139 137 134 126 120 123 131 136 137 143 140 135 129 127 125 123 122 122 120 120 127 126 122 127 128 124 116 117 124 123 122 121 111 109 108 106 101 86 55 13 12 18 357 34 41 12 25 20 22 21 22 356 10 6 4 358 355 348 345 346 349 338 352 352 351 351 351 352 354 355 353 355 355 350 338 336
115 132 135 130 125 121 114 111 133 138 138 133 127 124 130 136 136 142 141 133 129 128 125 124 123 122 121 118 119 115 120 125 126 124 120 117 115 118 123 125 122 123 124 123 125 110 92 58 7 3 23 2 3 39 27 26 23 19 20 22 22 16 13 5 2 354 349 353 346 349 342 350 348 349 351 351 351 354 354 358 353 350 348 350 348
133 137 157 138 135 140 141 139 138 137 135 138 130 130 137 139 141 145 137 132 130 127 125 123 122 122 122 124 128 131 130 130 126 127 128 129 134 129 129 126 126 124 120 124 126 128 107 73 34 360 346 357 354 348 19 21 20 14 13 20 21 20 16 20 12 350 350 347 346 344 345 349 347 349 352 351 351 354 357 356 353 353 354 351 350
150 150 156 144 132 133 128 133 139 141 143 145 140 136 142 142 145 144 132 129 125 125 123 123 123 123 124 128 130 128 127 128 129 129 129 135 138 137 134 136 134 129 128 124 136 134 122 115 86 353 348 340 334 335 351 3 8 12 10 16 16 22 21 18 11 353 358 353 352 353 350 350 351 351 350 350 349 357 357 355 355 355 355 352 352
159 164 162 153 145 149 138 136 147 148 154 152 151 139 144 145 156 145 143 136 131 128 127 126 129 131 130 129 125 128 132 134 137 139 139 142 137 141 132 137 128 126 133 137 154 153 148 167 183 55 305 321 330 338 342 346 2 8 12 13 16 22 22 19 14 5 4 357 354 353 352 354 353 353 350 348 349 355 357 359 358 358 356 352 354
137 137 154 144 131 137 144 146 154 164 158 161 162 149 150 160 150 148 141 137 134 132 131 133 134 136 136 134 127 127 129 134 138 149 151 150 148 147 140 145 140 145 151 150 157 159 175 185 183 233 284 301 323 343 343 337 354 3 13 9 8 24 22 21 16 8 4 357 358 357 354 353 352 355 353 358 356 354 352 358 359 359 356 352 351
167 171 147 138 144 145 156 157 162 181 169 168 161 167 146 145 151 147 142 140 137 136 135 137 141 138 139 140 138 142 140 138 139 138 141 139 135 140 143 149 155 156 163 170 171 172 179 192 181 209 308 331 354 343 349 343 344 359 9 355 352 18 16 13 10 360 358 357 356 359 352 350 351 353 357 357 356 354 354 355 356 356 355 354 353
161 159 167 157 161 160 165 167 170 174 169 157 156 143 149 146 142 144 143 139 140 144 146 148 147 148 148 151 146 146 144 146 154 153 144 137 141 152 153 163 167 172 166 176 175 182 187 188 193 214 327 23 358 348 355 359 345 19 9 357 13 20 10 360 355 358 355 354 352 345 344 347 350 351 354 354 358 357 358 356 351 349 350 346 346
162 178 179 176 175 171 172 173 174 166 158 155 151 148 154 152 148 148 147 143 143 142 139 141 145 145 149 155 153 151 152 150 147 140 139 157 162 166 171 183 208 175 174 167 177 187 189 195 175 170 137 14 9 358 350 342 68 38 23 17 16 18 3 360 7 2 354 347 346 349 356 357 3 359 357 356 354 353 352 352 351 352 347 346 350
184 171 185 186 182 172 169 174 166 163 159 156 154 156 160 157 151 152 149 144 143 140 142 149 153 152 153 152 151 149 152 150 148 147 139 111 77 155 177 167 184 200 206 192 163 179 188 176 179 218 189 150 188 231 307 95 88 52 43 42 44 32 21 14 8 7 4 357 3 359 2 1 1 359 360 357 356 351 349 348 348 348 347 349 350
171 166 194 196 190 178 168 166 166 164 162 160 158 161 160 163 161 158 155 148 145 146 149 152 157 165 165 159 154 153 158 151 151 149 149 144 130 85 126 216 214 156 168 171 196 176 163 175 170 170 249 235 239 265 208 113 86 68 48 58 53 38 26 21 15 6 5 13 6 4 2 3 3 358 360 353 349 349 349 346 344 342 345 349 348